Flag for Germany Weather past 2 weeks in Schleswig, Schleswig-Holstein, Germany

Now
58 °F

Partly sunny.


Feels Like: 58 °F
Forecast: 52 / 62 °F
Wind: 6 mph from Southwest

Location: Schleswig

Current Time: Aug 23, 2014 at 12:09:20 PM

Latest Report: Aug 23, 2014 at 11:00 AM


Visibility: 25 mi

Pressure: 29.79 "Hg

Humidity: 75%

Dew point: 51 °F

Location of SchleswigLocation

Historic Weather in Schleswig — Graph

°F

Schleswig temperature yesterday

Maximum temperature yesterday: 62 °F (at 6:00 PM)
Minimum temperature yesterday: 51 °F (at 4:00 AM)
Average temperature yesterday: 55 °F

Past Weeks' High & Low Weather Summary

 TemperatureHumidityPressure
High77 °F (Aug 8, 2:00 PM)98% (Aug 17, 6:00 PM)29.99 "Hg (Aug 17, 6:00 PM)
Low49 °F (Aug 21, 5:00 AM)44% (Aug 8, 4:00 PM)29.38 "Hg (Aug 18, 11:00 AM)
Average59 °F80%29.74 "Hg
* Reported Aug 8 10:00 AM — Aug 23 10:00 AM, Schleswig, Weather by CustomWeather, © 2014

Note: Actual official high and low records may vary slightly from our data, if they occured in-between our weather recording intervals... More about our weather records

Advertising

Schleswig weather history for previous 24 hours

 ConditionsComfort  
Time TempWeatherWind HumidityBarometerVisibility
10:00 AM
Aug 23
55 °FPartly sunny.6 mph86%29.79 "Hg28 mi
9:00 AM53 °FPartly sunny.5 mph92%29.78 "Hg28 mi
8:00 AM51 °FOvercast.5 mph94%29.78 "Hg25 mi
7:00 AM51 °FSprinkles. Low clouds.5 mph96%29.77 "Hg16 mi
6:00 AM50 °FOvercast.5 mph96%29.76 "Hg25 mi
4:00 AM51 °FOvercast.3 mph96%29.75 "Hg4 mi
3:00 AM51 °FSprinkles. Passing clouds.3 mph97%29.75 "Hg6 mi
2:00 AM51 °FPassing clouds.5 mph96%29.74 "Hg22 mi
1:00 AM51 °FPassing clouds.6 mph95%29.75 "Hg25 mi
12:00 AM52 °FLight rain. Overcast.3 mph96%29.75 "Hg4 mi
11:00 PM
Aug 22
52 °FLight rain. Overcast.5 mph95%29.75 "Hg12 mi
10:00 PM54 °FLight rain. Overcast.5 mph91%29.74 "Hg4 mi
9:00 PM55 °FOvercast.3 mph92%29.74 "Hg25 mi
8:00 PM56 °FOvercast.5 mph87%29.73 "Hg25 mi
7:00 PM59 °FOvercast.6 mph73%29.73 "Hg31 mi
6:00 PM62 °FPartly sunny.7 mph66%29.73 "Hg31 mi
5:00 PM60 °FOvercast.7 mph71%29.74 "Hg25 mi
4:00 PM56 °FRain showers. Overcast.8 mph86%29.75 "Hg9 mi
3:00 PM61 °FOvercast.7 mph67%29.76 "Hg25 mi
2:00 PM60 °FOvercast.7 mph69%29.77 "Hg25 mi
1:00 PM60 °FOvercast.7 mph71%29.77 "Hg16 mi
12:00 PM58 °FOvercast.7 mph75%29.77 "Hg16 mi
Weather by CustomWeather, © 2014

See weather overviewHow to use our weather pages